Location: ?
(35.6144°N, 139.6873°E)
Time: 06:32:21
(UTC+00:00)

Daily predictions for brighter satellites

Satellite Brightness Start Highest point End
(mag) Time Altitude Azimuth Time Altitude Azimuth Time Altitude Azimuth
Cosmos 1626 2.3 12:02:45 38° SSW 12:03:58 66° W 12:07:38 10° N
Cosmos 1908 3.3 12:00:28 10° N 12:04:19 74° W 12:05:11 50° SSW
ERS-1 Rocket 3.3 12:04:10 39° ESE 12:05:33 50° ENE 12:10:26 10° N
Spot 2 Rocket 3.4 12:07:34 42° SSE 12:09:20 85° ENE 12:14:26 10° NNW
SL-8 R/B 4.2 12:06:19 10° NW 12:11:00 52° NNE 12:12:37 35° E
Cosmos 2237 Rocket 3.5 12:13:08 23° E 12:13:08 23° E 12:16:42 10° NE
Cosmos 1346 Rocket 4.5 12:14:18 22° ENE 12:14:18 22° ENE 12:16:26 10° NE
Cosmos 1461 2.8 12:09:05 10° NW 12:13:10 66° WSW 12:13:38 59° SSW
Cosmos 1802 Rocket 4.0 12:08:37 10° N 12:14:57 87° E 12:17:45 36° S
Meteor 2-11 Rocket 4.4 12:09:14 10° N 12:15:21 84° W 12:18:04 35° S
Cosmos 2360 Rocket 4.1 12:11:01 10° WSW 12:15:54 29° WNW 12:20:47 10° N
ATLAS CENTAUR R/B 2.1 12:12:41 10° NNW 12:16:58 46° ENE 12:17:40 43° E
Cosmos 1459 Rocket 4.1 12:11:51 10° N 12:17:52 71° W 12:20:53 31° S
SPOT 1/Viking Rocket 4.1 12:17:33 29° SSW 12:19:52 50° W 12:24:52 10° NNW
Meteor 1-24 Rocket 3.7 12:20:40 50° SE 12:21:37 58° E 12:26:57 10° NNE
Cosmos 1025 Rocket 4.1 12:19:33 22° SW 12:21:55 43° W 12:26:06 10° N
SL-4 R/B 2.0 12:18:13 10° SW 12:22:33 82° NW 12:26:32 10° NE
Cosmos 1536 Rocket 3.5 12:22:38 59° SSW 12:23:28 86° W 12:27:57 10° N
Terra 1.9 12:26:54 54° E 12:27:23 57° ENE 12:32:04 10° N
Cosmos 1900 4.1 12:23:01 10° NNW 12:27:56 89° ENE 12:28:36 67° SSE
Cosmos 405 3.6 12:28:27 10° N 12:31:09 52° N 12:31:09 52° N
SPOT 5 2.9 12:32:08 58° S 12:33:09 85° WSW 12:38:08 10° NNW
Cosmos 2228 4.3 12:29:49 10° NNE 12:33:08 29° ENE 12:33:08 29° ENE
CARTOSAT-1 4.1 12:34:45 44° SW 12:35:23 48° W 12:39:35 10° NNW
ATLAS CENTAUR R/B 3.9 12:39:20 26° E 12:39:20 26° E 12:44:10 10° NE
NOSS 0 Rocket 3.9 12:38:23 53° SSE 12:39:32 64° ESE 12:45:41 10° NNE
COSMOS 2428 3.2 12:39:39 19° SW 12:43:44 58° WNW 12:49:23 10° NNE
Cosmos 2278 Rocket 3.2 12:45:50 10° N 12:50:55 33° ENE 12:51:45 31° ENE
Cosmos 1844 Rocket 3.8 12:47:39 10° NW 12:52:45 35° WSW 12:54:10 30° SW
Cosmos 2061 Rocket 4.5 12:49:37 10° NNW 12:55:52 57° W 12:58:00 39° SSW
H-2A R/B 3.9 12:53:50 10° N 12:57:38 56° WNW 12:57:38 56° WNW
ATLAS 3B R/B 4.2 12:52:18 10° WSW 12:58:04 32° NW 13:04:01 10° NNE
Cosmos 2233 Rocket 3.9 12:55:24 10° N 13:01:36 87° W 13:02:37 64° S
Cosmos 1455 4.3 12:59:05 10° NNE 13:00:44 20° NE 13:00:44 20° NE
Cosmos 1447 Rocket 4.4 13:01:45 60° SSW 13:03:00 86° W 13:09:13 10° N
Cosmos 1867 3.8 12:59:57 10° NNW 13:05:21 56° ENE 13:05:39 55° ENE
Cosmos 1300 4.4 13:09:01 10° NNW 13:11:40 28° WNW 13:11:40 28° WNW
Cosmos 968 Rocket 3.5 13:08:34 10° NNW 13:13:28 72° W 13:13:28 72° W
Meteor 2-10 Rocket 3.5 13:12:13 10° N 13:16:54 75° NW 13:16:54 75° NW
Cosmos 1486 Rocket 4.0 13:12:21 10° NNW 13:17:16 79° N 13:17:16 79° N
Cosmos 2058 Rocket 4.5 13:17:56 10° N 13:20:47 31° NE 13:20:47 31° NE
Cosmos 1726 Rocket 4.4 13:18:08 10° N 13:21:26 47° NNE 13:21:26 47° NNE
Cosmos 1980 3.8 13:22:19 66° WSW 13:22:54 71° WNW 13:28:36 10° NNE
USA 215 3.2 13:19:10 10° NE 13:25:42 79° NW 13:29:11 30° SW
Cosmos 1607 4.4 13:25:24 10° NNW 13:31:36 51° NE 13:32:23 49° E
Cosmos 1354 Rocket 4.4 13:28:21 10° N 13:33:08 55° NE 13:33:08 55° NE
Cosmos 2346 Rocket 4.5 13:34:59 65° E 13:34:59 65° E 13:40:53 10° NNE
SJ 16-02 4.0 13:34:37 10° NE 13:35:41 11° ENE 13:35:41 11° ENE
ALOS 2 4.1 13:50:56 32° NNE 13:50:56 32° NNE 13:53:44 10° N
Cosmos 1464 Rocket 3.9 13:44:30 10° N 13:50:55 82° E 13:50:58 82° E
Meteor 2-1 Rocket 4.4 13:45:23 10° N 13:50:19 66° NE 13:50:19 66° NE
SL-16 R/B 2.7 13:54:43 50° NE 13:54:43 50° NE 13:59:06 10° NNE
ATLAS CENTAUR R/B 4.1 13:52:42 10° WNW 13:53:48 14° W 13:53:48 14° W
Cosmos 2237 Rocket 3.2 13:54:54 35° W 13:56:02 39° WNW 14:01:17 10° N
COBE Rocket 4.5 14:04:45 56° N 14:04:45 56° N 14:08:40 10° N
Cosmos 1816 Rocket 4.4 14:04:36 76° NE 14:04:36 76° NE 14:10:22 10° N
Terra 4.3 14:05:47 12° W 14:05:47 12° W 14:07:19 10° WNW
Cosmos 2369 Rocket 4.5 14:07:30 10° NNE 14:10:39 15° NE 14:12:55 12° E
GEOS 3 Rocket 3.9 14:12:41 64° NNE 14:12:41 64° NNE 14:17:33 10° NNW
Cosmos 2034 Rocket 4.0 14:20:34 10° N 14:26:19 71° WNW 14:26:19 71° WNW
Cosmos 2278 Rocket 3.6 14:30:00 10° NW 14:33:35 27° W 14:33:35 27° W
Cosmos 2297 4.1 14:31:38 10° NNW 14:36:40 57° NE 14:36:40 57° NE
USA 229 DEB 3.5 14:41:46 80° NE 14:41:46 80° NE 14:48:04 10° NNE
USA 229 3.5 14:41:54 79° NE 14:41:54 79° NE 14:48:11 10° NNE
Thor Agena Rocket 4.1 14:42:41 10° N 14:46:50 57° N 14:46:50 57° N
Tsikada Rocket 4.4 14:50:06 53° WNW 14:50:06 53° WNW 14:55:57 10° N
NOSS 3-1 (C) 3.9 14:49:59 45° NW 14:50:03 45° NW 14:55:46 10° NNE
Resurs 1-4 Rocket 4.4 14:51:11 10° ENE 14:53:00 13° E 14:53:00 13° E
NOSS 3-1 (A) 3.5 15:01:55 62° NNW 15:01:55 62° NNW 15:07:09 10° NNE
Cosmos 1943 Rocket 2.5 14:56:47 10° NNW 15:01:26 62° N 15:01:26 62° N
Cosmos 1943 3.7 15:07:47 51° ENE 15:07:47 51° ENE 15:12:16 10° NNE
Cosmos 540 Rocket 4.5 15:13:28 39° ENE 15:13:28 39° ENE 15:17:03 10° NNE
CZ-2D R/B 4.0 15:10:32 10° NE 15:13:47 19° E 15:13:47 19° E
SJ 16-02 3.2 15:10:38 10° NNW 15:12:39 26° NW 15:12:39 26° NW
Cosmos 1603 4.0 15:16:51 64° NE 15:16:51 64° NE 15:21:41 10° NNE
DELTA 2 R/B (1) 4.0 15:23:31 55° NE 15:23:31 55° NE 15:27:53 10° ENE
Cosmos 841 Rocket 4.3 15:23:44 43° ENE 15:23:44 43° ENE 15:27:36 10° NNE
Cosmos 990 Rocket 4.5 15:18:23 10° N 15:22:45 56° NNE 15:22:45 56° NNE
Exosat Rocket 4.0 15:23:59 77° W 15:24:07 78° WNW 15:29:43 10° NNE
BREEZE-M DEB (TANK) 4.2 15:29:50 48° W 15:31:51 72° NNW 15:55:11 10° NE
SL-16 R/B 4.2 15:36:33 16° WNW 15:38:03 17° NW 15:41:42 10° NNW
Cosmos 1937 Rocket 4.2 15:33:03 10° N 15:38:11 48° ENE 15:38:24 47° ENE
USA 267 3.1 15:37:42 73° SSE 15:38:27 87° SW 15:45:01 10° NW
Cosmos 1898 Rocket 3.8 15:33:41 10° NNW 15:38:17 62° NNE 15:38:17 62° NNE
Cosmos 1656 Rocket 4.3 15:35:47 10° N 15:41:19 50° ENE 15:42:06 47° E
Cosmos 2279 Rocket 4.0 15:36:13 10° NNW 15:42:08 65° W 15:42:08 65° W
Lacrosse 4 Rocket 4.3 15:41:32 10° NNE 15:42:59 12° NE 15:44:26 10° ENE
CZ-4 R/B 4.4 15:42:33 10° N 15:46:14 55° N 15:46:14 55° N
X-37B 3.8 15:51:42 14° NNE 15:51:42 14° NNE 15:53:09 10° NE
Cosmos 1814 Rocket 4.3 15:53:48 62° ENE 15:53:48 62° ENE 15:58:24 10° NNE
USA 306 4.1 15:56:30 40° NNE 15:56:30 40° NNE 15:59:28 10° NE
Cosmos 2369 Rocket 2.3 15:49:34 10° NNW 15:54:40 68° WNW 15:54:40 68° WNW
Cosmos 1825 4.3 16:00:39 21° NNW 16:00:39 21° NNW 16:02:15 10° NNW
ATLAS 5 CENTAUR R/B 2.7 16:01:37 37° NE 16:01:37 37° NE 16:04:15 10° NNE
Cosmos 921 Rocket 4.0 16:03:41 44° N 16:03:41 44° N 16:06:37 10° NNE
Cosmos 1570 Rocket 4.0 16:05:30 79° NNE 16:05:30 79° NNE 16:10:24 10° NNE
Cosmos 1242 Rocket 4.5 16:03:33 10° N 16:05:32 29° NNE 16:05:32 29° NNE
Cosmos 1842 Rocket 4.3 16:04:20 10° N 16:07:32 49° N 16:07:32 49° N
Cosmos 2263 4.1 16:04:46 10° NNW 16:10:11 77° WNW 16:10:11 77° WNW
Nadezhda 4 Rocket 4.0 16:11:54 58° W 16:12:13 59° W 16:18:16 10° N
Cosmos 2151 3.9 16:14:05 43° ENE 16:14:05 43° ENE 16:17:31 10° NNE
Cosmos 2026 Rocket 4.2 16:12:27 53° SE 16:13:40 64° E 16:19:55 10° NNE
Cosmos 858 Rocket 4.5 16:10:39 10° NNW 16:15:31 73° NW 16:15:31 73° NW
Cosmos 2098 Rocket 3.9 16:18:24 53° WNW 16:18:24 53° WNW 16:22:45 10° N
Cosmos 1076 Rocket 4.1 16:20:46 51° NNW 16:20:46 51° NNW 16:24:02 10° N
Cosmos 2208 Rocket 3.9 16:21:09 82° WSW 16:21:18 83° WNW 16:26:47 10° NNE
MOZ.5/SAFIR/RUBIN 5/SL-8 4.3 16:25:58 50° WNW 16:25:58 50° WNW 16:29:49 10° NNW
Cosmos 1633 4.2 16:33:53 29° NNW 16:33:53 29° NNW 16:35:50 10° N
Resurs 1-4 Rocket 2.1 16:28:24 10° N 16:33:41 66° WNW 16:34:04 64° W
Tianhe-1 4.2 16:38:34 10° E 16:38:34 10° E 16:38:36 10° E
USA 290 4.5 16:38:54 21° NNW 16:38:54 21° NNW 16:40:19 10° N
Cosmos 2221 3.9 16:34:04 10° NNW 16:36:35 28° NW 16:36:35 28° NW
Cosmos 1932 4.4 16:32:28 10° NW 16:38:34 59° WSW 16:38:57 58° SW
USA 307 4.4 16:38:52 26° NW 16:39:28 27° NW 16:43:07 10° NNE
Aureole 3 Rocket 3.4 16:36:53 10° NNW 16:41:18 74° W 16:41:47 68° SW
BREEZE-M DEB (TANK) 4.5 16:26:38 10° NW 16:43:24 73° NNE 16:47:24 10° ESE
ADEOS II 2.2 16:38:51 10° NNE 16:44:06 68° ESE 16:45:13 52° SSE
AQUA 3.6 16:40:09 10° N 16:44:56 81° WNW 16:45:14 76° SW
SL-16 R/B 2.4 16:45:41 50° S 16:47:23 74° WSW 16:53:35 10° NNW
NPP 3.7 16:43:18 10° N 16:48:37 62° WNW 16:49:26 55° WSW
Meteor 2-3 Rocket 3.6 16:52:10 54° S 16:53:30 89° W 16:59:07 10° N
ADEOS Rocket 3.6 16:48:05 19° SSE 16:53:44 72° ENE 17:00:28 10° N
Cosmos 1092 Rocket 4.3 16:52:56 41° WSW 16:54:01 45° W 16:59:54 10° N
CZ-2D R/B 2.6 16:49:32 10° N 16:54:25 42° WNW 16:55:06 40° W
BREEZE-M R/B 3.9 16:53:51 26° WNW 16:55:01 32° NNW 16:59:20 10° NE
Cosmos 1606 4.4 16:51:52 10° NNW 16:53:49 24° NW 16:53:49 24° NW
Helios 1B rocket 3.1 16:53:29 10° N 16:57:03 41° WNW 16:57:03 41° WNW
IDEFIX/ARIANE 42P 3.3 16:52:20 10° NNE 16:57:22 45° E 16:59:31 29° SSE
CZ-4C R/B 2.4 16:57:58 39° SSE 16:58:56 45° ESE 17:03:58 10° NE
Meteor 1-28 Rocket 4.2 17:00:13 31° ESE 17:01:31 43° ENE 17:05:08 10° N
Meteor 1-29 3.4 16:59:49 10° N 17:02:37 54° NNW 17:02:37 54° NNW
MINOTAUR 4 R/B 4.0 17:08:49 71° NW 17:08:49 71° NW 17:12:02 10° NNW
DELTA 2 R/B (1) 4.1 17:04:15 13° WNW 17:09:08 57° N 17:14:36 10° E
Cosmos 1933 3.2 17:05:14 10° N 17:09:19 75° W 17:09:34 71° SW
FALCON 9 DEB 4.0 17:07:34 10° NW 17:10:52 49° NE 17:14:09 10° ESE
CBERS-1 4.0 17:07:37 10° NNE 17:12:46 77° ESE 17:14:44 38° S
IRS-1D 3.4 17:08:48 10° N 17:13:54 81° WNW 17:15:29 45° SSW
ATLAS 5 CENTAUR R/B 4.4 17:07:21 28° SW 17:15:29 44° S 18:15:45 10° ESE
Meteor 1-26 Rocket 4.3 17:14:21 10° N 17:20:17 85° W 17:24:05 24° S
Cosmos 1655 Rocket 4.1 17:16:50 26° S 17:20:29 76° E 17:26:43 10° N
Lacrosse 4 Rocket 1.3 17:18:01 10° NW 17:22:00 55° WSW 17:22:00 55° WSW
Landsat 4 4.2 17:18:59 10° N 17:22:34 43° WNW 17:22:44 43° W
Alouette 2 Rocket 3.8 17:21:53 10° N 17:25:34 67° E 17:29:19 16° SSE
DELTA 2 DEB (DPAF) 4.0 17:24:26 33° S 17:26:24 83° WSW 17:30:52 10° NNW
X-37B 2.8 17:25:50 10° NW 17:28:35 26° NNE 17:31:20 10° E
Cosmos 1151 Rocket 2.9 17:24:44 10° N 17:29:01 86° E 17:31:03 30° S
Cosmos 1862 3.6 17:29:06 32° SSE 17:30:50 64° E 17:34:50 10° NNE
Cosmos 1766 Rocket 3.8 17:33:37 40° SW 17:34:50 53° W 17:39:13 10° N
OAO 1 4.4 17:30:59 19° W 17:34:59 76° S 17:40:28 10° ESE
SeaSat 1 2.4 17:31:52 10° NNE 17:36:49 84° ESE 17:39:19 30° SSW
Cosmos 1408 Rocket 3.7 17:34:33 28° S 17:36:53 75° E 17:41:21 10° N
deb Kosmos-1763 3.9 17:37:49 44° S 17:38:48 77° ESE 17:42:20 10° NNE
Cosmos 2298 Rocket 4.2 17:36:25 10° NNW 17:41:34 51° WSW 17:44:36 24° SSW
Chandra Rocket (1) 4.0 17:39:12 24° SW 17:43:23 33° S 17:47:37 10° ESE
Okean 3 Rocket 4.2 17:46:30 30° WSW 17:47:49 38° W 17:51:54 10° N
MSX 3.8 17:44:01 10° N 17:49:47 80° WNW 17:53:49 20° SSW
Cosmos 2150 Rocket 4.4 17:47:52 10° NNW 17:52:47 42° WSW 17:55:59 20° SSW
Cosmos 1553 Rocket 4.5 17:49:48 10° NNW 17:55:35 41° W 17:59:15 21° SSW
ATLAS 2A CENTAUR R/B 3.5 17:56:53 23° SSW 17:58:00 27° SSE 18:04:47 10° ESE
Cosmos 1125 Rocket 3.8 17:53:49 10° NNW 17:58:51 47° WSW 18:03:15 13° S
CZ-2C R/B 2.2 17:58:32 23° S 17:59:21 25° SSE 18:02:12 10° E
GPS 2-04 Rocket1 2.5 17:56:48 17° W 17:59:45 80° S 18:03:35 10° ESE
Cosmos 1833 Rocket 2.7 17:55:47 19° SSW 17:59:57 83° ESE 18:05:37 10° NNE
CZ-4B R/B 3.5 17:56:17 10° NNE 18:01:33 87° WNW 18:05:48 15° SSW
S3M 4.1 17:56:07 10° NNW 18:02:08 56° W 18:07:49 12° SSW
Meteor 1-10 Rocket 4.5 17:57:00 10° N 18:02:51 74° E 18:08:32 10° SSE
Meteor 2-6 Rocket 4.2 17:57:19 10° N 18:03:11 82° W 18:08:51 10° S
Cosmos 1812 2.7 18:00:07 10° NNW 18:03:55 63° W 18:06:49 16° S
COSMOS 2441 4.4 17:59:45 10° N 18:04:31 63° WNW 18:07:57 19° SSW
FALCON 9 DEB 4.3 18:01:52 10° NNW 18:04:48 40° NE 18:07:42 10° ESE
BREEZE-M DEB (TANK) 2.8 18:02:31 21° WSW 18:05:36 89° WNW 18:08:30 10° ENE
IRS-P3 4.3 18:00:26 10° N 18:05:40 60° WNW 18:09:35 18° SSW
ARIANE 5 R/B 2.4 18:01:14 10° N 18:06:13 74° WNW 18:10:15 16° SSW
CZ-2C R/B 4.0 18:07:18 10° NNE 18:10:53 38° E 18:14:23 10° SSE
CZ-2D R/B 3.4 18:07:10 10° NNE 18:11:19 87° WNW 18:14:45 14° SSW
OAO 3 Rocket 3.5 18:09:31 21° SW 18:12:26 49° SSE 18:17:04 10° E
Tianhe-1 1.5 18:10:41 20° W 18:12:37 58° NNW 18:15:45 10° ENE
Cosmos 1271 Rocket 3.5 18:10:01 10° NNW 18:13:22 31° W 18:15:15 20° SW
USA 281 3.2 18:08:48 10° SSE 18:15:17 66° WSW 18:21:50 10° NNW
Cosmos 1782 4.3 18:13:05 10° NW 18:15:58 19° W 18:17:07 17° WSW
ASTEX 1 4.1 18:13:32 17° SSW 18:16:48 35° W 18:21:19 10° NNW
Gbstr 26 Del rocket 3.7 18:14:39 16° SSW 18:18:06 55° SE 18:23:32 10° NE
Meteor 1-27 Rocket 4.3 18:12:47 10° N 18:18:16 59° E 18:23:41 10° SSE
CZ-4C R/B 4.0 18:17:00 20° SW 18:18:31 28° W 18:21:32 10° NW
Cosmos 1805 Rocket 4.0 18:16:36 10° S 18:20:54 64° E 18:25:16 10° NNE
Delta 2 Rocket 3.1 18:18:08 13° W 18:21:43 88° S 18:25:25 10° E
ADEOS II 4.1 18:20:37 10° NW 18:23:09 14° WNW 18:25:41 10° W
Cosmos 2084 Rocket 4.3 18:20:55 16° WSW 18:23:31 33° NW 18:27:08 10° NNE
Cosmos 2082 Rocket 2.6 18:18:41 10° S 18:24:11 63° ESE 18:29:44 10° NNE
NOSS 3-4 (A) 3.4 18:26:51 11° SSW 18:32:24 86° ESE 18:38:28 10° NNE
NOSS 3-4 (C) 3.4 18:26:57 11° SSW 18:32:31 85° ESE 18:38:36 10° NNE
IDEFIX/ARIANE 42P 4.2 18:32:54 10° NNW 18:36:32 20° WNW 18:40:11 10° WSW
SL-08 R/B 3.5 18:34:18 10° S 18:38:46 48° W 18:43:20 10° NNW
Cosmos 1500 Rocket 4.2 18:35:25 11° SSW 18:39:18 37° W 18:43:19 10° N
PAYLOAD A 4.1 18:35:45 10° N 18:40:48 67° WNW 18:46:01 10° SSW
ATLAS 2AS CENTAUR R/B 3.6 18:35:28 10° SSW 18:43:09 60° ESE 18:50:50 10° NE
NOSS 3-2 (A) 4.2 18:35:17 10° NNW 18:43:13 82° WSW 18:51:59 10° SSE
Cosmos 1743 Rocket 4.3 18:39:57 10° SW 18:43:55 34° W 18:47:57 10° NNW
Spot 4 Rocket 4.3 18:40:52 10° N 18:45:50 52° WNW 18:50:48 10° SSW
CZ-4C R/B 3.7 18:43:55 10° W 18:47:42 22° NW 18:52:01 10° N
COSMOS 2406 3.9 18:44:42 10° SW 18:49:56 38° WNW 18:55:13 10° N
CZ-2C R/B 2.6 18:46:15 10° N 18:51:02 54° WNW 18:55:38 10° SSW
DELTA 2 R/B (1) 3.6 18:50:16 10° WNW 18:55:50 89° SSW 19:01:25 10° ESE
